Location: Bastogne Gables
(35.1554°N, 78.9900°W)
Time: 01:56:33
(UTC+00:00)

AQUARIUS - Visible Passes

Search period start: 27 February 2021 00:00
Search period end: 09 March 2021 00:00
Orbit: 650 x 652 km, 98.0° (Epoch: 26 February)

Date Brightness Start Highest point End Pass type
(mag) Time Alt. Az. Time Alt. Az. Time Alt. Az.
28 Feb 7.8 00:10:03 10° WSW 00:12:00 13° W 00:13:57 10° WNW visible
28 Feb 7.6 10:27:31 10° ENE 10:29:36 13° E 10:31:39 10° ESE visible
01 Mar 6.7 10:52:55 10° NE 10:56:41 26° E 11:00:26 10° SSE visible
02 Mar 7.4 23:52:39 10° SW 23:55:52 19° W 23:59:06 10° NW visible
04 Mar 7.4 10:37:35 10° NE 10:40:35 17° E 10:43:33 10° SE visible
05 Mar 6.2 11:03:31 10° NNE 11:07:38 34° E 11:11:42 10° SSE visible
05 Mar 6.6 23:35:52 10° SSW 23:39:46 29° W 23:43:40 10° NW visible
07 Mar 7.6 00:04:22 10° SW 00:06:50 14° W 00:09:19 10° WNW visible
07 Mar 7.8 10:23:05 10° ENE 10:24:25 11° E 10:25:46 10° ESE visible
08 Mar 7.0 10:47:58 10° NE 10:51:32 23° E 10:55:05 10° SSE visible
